Simultaneous Nadir Overpasses (SNOs) Predictions

Prediction of SNOs between AQUA and NPP Satellite Orbit:

Table of predicted SNOs for the next 14.0 days since TLE Epoch: 1/8/2022
Index Date (AQUA) Time (AQUA) Lat,Lon (AQUA) SZA (AQUA ) Date (NPP) Time (NPP) Lat,Lon (NPP) SZA (NPP ) Distance(km) Time Diff (sec)
1 01/09/2022 06:22:16 76.40, -34.99 118.62 01/09/2022 06:22:09 76.39, -35.10 118.65 2.94 7
2 01/09/2022 07:11:19 -77.56, 136.93 62.72 01/09/2022 07:12:28 -77.56, 137.01 62.80 1.93 69
3 01/11/2022 21:49:29 -75.91, -88.31 61.18 01/11/2022 21:48:26 -75.91, -88.30 61.12 0.21 63
4 01/11/2022 22:38:31 77.03, 83.10 117.56 01/11/2022 22:38:45 77.03, 83.17 117.53 1.72 14
5 01/14/2022 14:05:52 -76.21, 28.50 61.90 01/14/2022 14:05:11 -76.21, 28.49 61.86 0.42 41
6 01/14/2022 14:54:56 77.22,-160.29 116.95 01/14/2022 14:55:32 77.22,-160.25 116.90 1.23 36
7 01/17/2022 06:22:14 -76.54, 145.49 62.72 01/17/2022 06:21:55 -76.54, 145.48 62.70 0.24 19
8 01/17/2022 07:11:19 77.49, -43.33 116.18 01/17/2022 07:12:17 77.49, -43.27 116.12 1.51 58
9 01/19/2022 21:49:33 75.66, 90.95 117.79 01/19/2022 21:48:19 75.68, 90.98 117.84 2.75 74
10 01/19/2022 22:38:35 -76.91, -97.34 63.63 01/19/2022 22:38:38 -76.91, -97.31 63.64 0.74 3



Historial Predications of SNOs between AQUA and NPP
